Temp
84 79 80 80 82 75 76 74 74 75 75 76 76 74 75 76 75 73 70 70 70 71 71 69 71 71 70 71 69 70 69 68
85 79 80 76 77 74 75 73 73 74 74 73 73 71 72 73 74 70 70 69 69 69 70 68 71 69 69 68 68 66 67 67
79 77 78 77 75 73 74 74 73 74 75 75 75 74 73 73 72 69 69 68 67 69 68 68 69 68 66 66 66 65 66 66
81 75 74 75 75 74 74 74 73 73 75 76 74 74 72 70 69 68 67 67 67 68 67 68 67 67 66 65 65 65 63 65
77 74 71 73 75 75 74 74 73 73 75 73 71 69 67 69 69 70 68 67 66 66 66 66 66 68 65 65 66 65 66 62
82 75 71 71 74 73 74 74 73 73 73 73 72 70 71 71 71 68 66 65 66 65 65 65 64 66 65 65 64 64 65 65
86 82 72 69 71 71 71 73 73 73 72 72 71 69 70 71 69 66 67 65 65 64 65 64 64 65 63 63 63 63 63 63
88 84 77 69 67 67 67 71 71 73 72 71 71 70 71 70 68 67 66 65 64 62 63 62 62 63 63 63 61 62 61 61
90 88 82 74 68 66 67 71 70 72 71 70 71 72 73 72 70 70 68 67 66 64 63 63 63 63 62 62 62 62 61 60
90 89 85 77 71 66 67 69 69 72 71 69 70 70 71 71 71 70 70 69 69 65 63 62 62 62 61 61 61 59 60 59
90 90 88 81 75 67 69 68 69 71 70 68 69 69 70 73 72 69 69 68 68 65 62 63 62 61 61 60 60 60 58 58
88 89 89 87 77 69 67 66 66 66 67 66 67 67 69 72 72 71 70 68 67 65 63 62 60 59 61 59 58 59 56 55
88 87 88 86 78 73 67 64 64 64 66 65 65 67 70 70 71 71 69 68 67 67 64 61 60 60 57 58 56 57 55 55
89 86 85 84 78 72 66 64 63 64 65 66 67 68 70 70 70 70 71 69 67 66 64 61 59 58 58 57 56 54 54 54
87 86 83 82 78 73 66 64 64 64 64 66 68 69 68 70 71 71 70 70 67 64 62 61 60 59 60 55 51 49 53 50
86 86 84 82 79 77 72 68 64 65 64 65 66 65 66 69 70 70 70 70 67 64 63 60 58 60 55 48 47 46 45 47
86 87 86 82 80 78 76 73 68 67 66 65 66 66 65 66 67 67 67 67 64 63 62 58 56 54 47 43 47 45 45 45
85 86 87 84 82 79 76 74 73 70 68 68 67 67 66 65 66 66 65 64 62 57 57 55 53 54 43 42 42 45 44 47
84 86 87 87 84 80 76 75 73 71 68 68 70 68 65 65 65 64 64 60 58 58 56 56 56 55 42 42 40 45 44 46
MSLP
1012.11 1013.54 1014.39 1015.00 1015.61 1017.29 1018.34 1019.05 1019.37 1019.78 1020.24 1020.22 1020.61 1021.42 1021.60 1022.04 1022.60 1023.08 1023.88 1024.15 1024.47 1024.28 1024.55 1024.85 1024.46 1024.51 1024.72 1024.72 1025.16 1025.55 1025.78 1026.00
1011.74 1012.90 1013.90 1015.01 1015.64 1016.73 1017.94 1018.72 1019.04 1019.60 1020.04 1020.16 1020.43 1020.71 1021.40 1021.97 1022.43 1023.46 1023.76 1024.10 1024.36 1024.43 1024.53 1024.85 1024.60 1024.60 1024.79 1025.38 1025.51 1025.66 1025.95 1026.29
1011.33 1012.58 1013.42 1014.31 1015.24 1016.13 1016.97 1017.87 1018.39 1019.00 1019.38 1019.63 1020.06 1020.49 1021.03 1021.57 1022.31 1023.33 1023.60 1024.03 1024.36 1024.29 1024.41 1024.60 1024.51 1024.86 1025.43 1025.53 1025.78 1025.92 1026.10 1026.40
1010.22 1011.90 1013.04 1013.87 1014.62 1015.63 1016.54 1017.19 1017.91 1018.45 1018.64 1019.15 1019.64 1020.28 1021.14 1021.57 1022.19 1022.93 1023.54 1023.85 1024.13 1024.20 1024.45 1024.57 1024.81 1024.87 1025.20 1025.61 1025.68 1025.81 1025.92 1026.21
1010.15 1011.13 1012.62 1013.46 1014.16 1015.08 1015.75 1016.16 1016.90 1017.59 1017.91 1018.58 1018.96 1019.49 1020.29 1021.06 1021.62 1022.21 1023.02 1023.58 1023.91 1024.18 1024.38 1024.68 1024.80 1024.68 1024.92 1025.41 1025.62 1025.70 1025.76 1026.14
1007.98 1010.05 1011.80 1013.12 1013.89 1014.38 1014.86 1015.39 1016.20 1016.87 1017.70 1018.05 1018.65 1018.96 1019.64 1020.51 1021.16 1021.80 1022.58 1023.32 1023.71 1024.02 1024.27 1024.50 1024.71 1024.65 1024.92 1025.21 1025.69 1025.91 1025.96 1025.76
1006.49 1008.44 1010.68 1012.14 1013.32 1013.97 1014.52 1015.05 1015.57 1016.52 1017.08 1017.49 1018.19 1018.43 1018.65 1019.36 1020.44 1021.31 1021.99 1022.72 1023.29 1023.84 1024.06 1024.26 1024.51 1024.59 1025.00 1025.43 1025.82 1025.94 1025.98 1026.14
1004.67 1006.61 1009.08 1011.05 1012.15 1013.08 1013.79 1014.22 1014.73 1015.35 1016.28 1016.92 1017.40 1017.97 1018.03 1018.60 1019.67 1020.42 1021.07 1021.85 1022.45 1023.16 1023.54 1023.85 1024.19 1024.47 1024.85 1025.05 1025.45 1025.57 1025.88 1025.99
1003.30 1004.62 1006.89 1009.23 1011.02 1011.94 1012.61 1013.03 1013.77 1014.31 1015.37 1016.31 1017.07 1017.35 1017.59 1018.05 1018.97 1019.62 1020.24 1020.94 1021.51 1022.17 1022.95 1023.38 1023.80 1024.27 1024.59 1024.86 1025.14 1025.23 1025.35 1025.68
1002.69 1003.48 1005.06 1007.46 1009.51 1010.78 1011.49 1012.08 1012.80 1013.33 1014.46 1015.81 1016.23 1016.78 1016.92 1017.31 1018.07 1018.96 1019.53 1020.09 1020.66 1021.49 1022.38 1022.90 1023.32 1023.77 1024.31 1024.48 1024.56 1024.93 1025.30 1025.77
1002.13 1002.51 1003.71 1005.65 1007.65 1009.70 1010.74 1011.36 1011.86 1012.36 1013.58 1014.77 1015.14 1015.93 1016.40 1016.61 1017.29 1018.08 1018.67 1019.39 1019.78 1020.70 1021.60 1022.07 1022.67 1023.23 1023.65 1023.92 1024.23 1024.70 1025.18 1025.45
1002.04 1002.09 1002.71 1003.86 1006.20 1008.46 1009.70 1010.54 1011.16 1011.70 1012.51 1013.63 1014.26 1014.94 1015.56 1015.99 1016.46 1017.16 1017.99 1018.65 1019.22 1019.93 1020.76 1021.44 1022.19 1022.78 1022.96 1023.45 1023.88 1024.18 1024.70 1024.91
1001.39 1001.83 1002.15 1003.16 1005.22 1006.97 1008.38 1009.71 1010.48 1011.10 1011.87 1013.01 1013.35 1013.99 1014.62 1015.08 1015.60 1016.14 1017.19 1017.80 1018.44 1019.00 1019.93 1020.75 1021.40 1021.76 1022.20 1022.92 1023.49 1023.91 1024.37 1024.73
1000.63 1001.30 1001.98 1002.88 1004.86 1006.49 1007.80 1008.97 1009.87 1010.67 1011.46 1012.00 1012.42 1012.92 1013.55 1014.08 1014.80 1015.45 1016.21 1017.14 1017.71 1018.44 1019.21 1019.89 1020.39 1020.99 1021.70 1022.42 1022.97 1023.58 1023.87 1024.24
1000.20 1000.52 1001.68 1002.64 1003.92 1005.53 1007.17 1008.28 1009.32 1010.17 1010.74 1010.91 1011.36 1011.92 1012.44 1013.28 1014.14 1014.82 1015.38 1016.16 1016.86 1017.97 1018.44 1018.92 1019.39 1020.12 1020.79 1021.57 1022.42 1023.01 1023.12 1023.84
999.52 999.56 1000.65 1001.99 1003.15 1004.23 1005.74 1007.19 1008.16 1008.90 1009.65 1009.97 1010.11 1011.03 1011.87 1012.64 1013.22 1013.85 1014.40 1015.11 1015.80 1016.93 1017.60 1018.18 1018.99 1019.46 1019.88 1020.65 1021.30 1022.24 1022.85 1023.11
998.77 998.83 999.33 1000.67 1002.04 1003.40 1004.17 1005.36 1006.71 1007.93 1008.26 1008.47 1009.57 1010.39 1011.21 1011.75 1012.25 1012.80 1013.37 1013.86 1014.66 1015.76 1016.40 1017.37 1017.86 1018.34 1018.98 1019.59 1020.80 1021.37 1021.74 1022.21
998.10 998.33 998.23 999.18 1000.52 1002.04 1003.31 1004.17 1005.42 1006.50 1007.38 1007.82 1008.63 1009.60 1010.23 1011.17 1011.81 1012.22 1012.62 1013.20 1014.04 1014.96 1015.75 1016.56 1017.13 1017.58 1018.39 1019.46 1019.76 1020.48 1020.96 1021.06
997.69 997.65 997.70 998.31 999.42 1000.88 1002.44 1003.46 1004.49 1005.40 1006.50 1007.25 1007.76 1008.45 1009.32 1010.13 1010.92 1011.43 1012.11 1012.92 1013.67 1014.38 1015.23 1015.92 1016.42 1016.92 1017.67 1018.59 1019.07 1019.58 1019.97 1020.09
Wind_Speed
18 14 18 16 15 16 15 13 13 13 10 8 8 8 6 6 6 6 8 6 5 4 5 5 5 5 5 5 6 5 5 6
16 17 18 15 14 16 16 15 14 11 10 9 9 9 8 7 6 8 7 7 7 6 5 5 3 6 6 6 6 8 6 6
20 18 19 19 17 16 18 17 16 13 10 10 9 8 9 8 7 8 8 8 8 7 6 6 5 6 7 8 8 6 6 7
20 18 18 19 21 21 19 17 16 15 15 11 10 8 7 8 9 8 8 9 9 7 7 6 7 7 7 8 8 8 7 6
20 17 19 22 20 19 20 19 17 17 19 14 16 12 11 9 9 9 10 11 10 9 8 8 7 6 8 8 7 7 5 6
22 20 17 18 20 21 20 20 21 20 17 16 14 14 11 10 10 12 11 10 10 10 9 9 8 6 8 8 7 7 5 5
19 20 18 18 19 17 17 21 21 21 20 19 17 16 14 11 11 11 10 9 9 10 10 9 8 7 8 7 7 8 6 5
16 21 22 21 22 20 17 22 22 21 20 19 18 18 15 14 14 11 13 11 10 12 12 10 8 8 8 8 8 7 7 7
10 17 22 24 22 23 22 23 22 20 20 19 17 18 12 11 14 12 10 10 11 13 12 10 11 11 9 9 7 7 8 8
9 11 20 21 22 24 23 21 21 22 21 17 17 16 17 14 16 13 11 11 11 13 13 13 13 12 12 11 9 10 8 7
14 9 12 20 21 21 23 22 21 20 20 18 16 17 16 15 14 16 14 13 13 14 16 15 14 13 13 12 10 10 10 8
14 14 11 15 21 20 20 20 20 18 18 18 17 17 18 17 15 15 15 14 14 15 17 16 15 14 14 12 12 11 13 10
15 11 14 12 17 20 19 19 19 19 19 20 21 18 19 18 17 17 16 16 16 16 16 16 16 17 13 14 14 12 12 12
15 10 11 12 14 16 16 17 19 18 18 19 18 19 19 19 18 17 17 17 16 16 16 16 17 15 15 14 13 13 12 11
19 9 11 13 16 18 17 17 18 18 19 19 20 20 19 17 17 17 17 17 17 17 16 17 16 16 16 14 12 12 12 11
19 15 12 14 16 18 20 18 18 19 19 19 20 17 16 17 18 18 17 18 17 17 17 15 14 15 11 16 16 13 12 12
20 20 13 16 18 17 17 19 19 20 20 20 17 16 17 17 17 18 18 18 17 17 16 16 16 12 16 20 15 14 14 15
19 20 15 15 18 17 18 17 17 19 18 16 17 18 18 18 15 15 15 15 14 14 14 14 15 15 16 21 21 13 14 16
22 18 15 14 16 17 14 16 17 16 15 16 18 17 15 15 15 15 13 10 14 13 14 17 16 14 17 23 24 17 13 16
Wind_Direction
180 188 193 190 189 175 185 181 182 182 170 171 161 167 161 154 160 144 158 147 159 173 128 147 176 149 157 163 153 146 152 152
211 184 194 178 194 172 187 187 182 181 182 181 173 172 168 171 166 147 164 154 161 174 146 159 160 155 149 149 155 161 151 143
210 188 199 185 183 182 189 189 183 189 187 190 183 179 170 168 155 170 169 168 171 175 158 165 173 137 153 160 164 168 166 182
209 195 202 199 194 190 191 190 183 195 193 188 181 173 167 173 167 173 177 177 179 171 172 165 168 163 163 169 178 184 179 196
225 197 192 205 203 195 193 190 188 193 196 191 186 179 184 188 179 178 171 183 181 174 177 169 179 179 164 184 187 194 217 201
208 203 198 201 208 198 196 192 196 193 198 196 188 189 187 181 182 167 177 179 184 182 180 178 187 191 177 189 186 213 203 249
217 199 186 196 200 206 199 199 202 198 198 199 195 194 186 176 180 173 180 179 180 189 187 186 185 190 177 187 196 205 223 218
201 198 197 191 198 196 203 201 206 197 198 199 195 198 194 181 181 183 180 181 184 185 189 189 187 188 181 186 187 192 202 207
228 210 197 201 199 197 198 199 205 199 196 199 203 199 200 191 188 189 188 188 186 174 188 188 189 185 184 187 191 197 198 209
268 222 195 196 199 201 205 203 203 201 191 198 203 202 202 194 189 197 189 187 186 174 184 187 189 188 192 190 196 201 195 199
303 237 220 192 200 196 206 202 204 200 186 196 196 204 206 198 196 193 194 189 193 174 187 189 190 191 193 195 202 197 196 199
291 295 245 213 187 194 203 200 201 197 193 191 199 202 202 208 200 193 200 191 191 184 191 190 192 194 198 198 199 200 196 197
284 279 262 221 186 199 196 196 197 193 189 196 200 201 204 203 206 198 195 198 197 191 192 192 192 203 195 199 201 201 199 212
295 269 250 205 203 203 193 191 195 195 201 201 199 202 202 205 204 203 197 204 201 203 194 200 200 198 199 203 195 201 205 208
291 255 244 223 203 199 194 195 196 199 202 202 201 202 204 205 205 204 207 202 199 207 206 201 204 197 201 196 192 201 202 205
281 270 234 226 217 206 192 196 197 199 202 203 208 200 203 208 208 207 207 206 200 202 209 207 205 209 198 180 190 197 192 203
282 283 232 220 220 216 205 202 195 200 203 203 202 197 201 214 211 208 206 208 196 204 206 208 209 205 195 185 193 191 191 205
286 284 264 223 213 207 214 202 197 196 204 201 194 201 201 207 215 213 213 210 191 195 208 207 213 214 180 194 191 192 198 210
288 276 275 240 213 201 194 196 200 192 200 204 202 198 197 198 206 213 208 191 194 210 208 215 221 217 189 197 194 204 207 213